Location: Franzen
(48.6167°N, 15.3833°E)
Time: 22:54:50
(UTC+00:00)

Transit 2A - Pass Details

Date: 06 August 2021
Orbit: 594 x 964 km, 66.7° (Epoch: 26 September)

Event Time Altitude Azimuth Distance (km) Brightness Sun altitude
Rises 11:03:59 0° 327° (NNW) 3,181 8.9 57.9°
Reaches altitude 10° 11:06:31 10° 338° (NNW) 2,316 8.3 57.9°
Maximum altitude 11:11:18 32° 41° (NE) 1,378 7.5 57.9°
Drops below altitude 10° 11:16:30 10° 104° (ESE) 2,530 8.9 57.8°
Sets 11:19:22 0° 114° (ESE) 3,519 9.5 57.8°
